Weather History for Pampa, TX

Change the Weather History Date:

Thursday, July 25, 2013

  Actual Average Record
Temperature  
Mean Temperature 70 °F -  
Max Temperature 78 °F 91 °F 104 °F (1974)
Min Temperature 63 °F 66 °F 55 °F (2004)
Cooling Degree Days 6    
Growing Degree Days 20 (Base 50)    
Moisture  
Dew Point 62 °F    
Average Humidity 74    
Maximum Humidity 89    
Minimum Humidity 48    
Precipitation  
Precipitation 0.00 in - - ()
Sea Level Pressure  
Sea Level Pressure 30.14 in    
Wind  
Wind Speed 14 mph (South)    
Max Wind Speed 25 mph    
Max Gust Speed 38 mph    
Visibility 10 miles    
Events Rain , Thunderstorm    
Averages and records for this station are not official NWS values.
T = Trace of Precipitation, MM = Missing Value Source: NWS Daily Summary

Daily Weather History Graph

Daily Weather History Graph

Search for Another Location

Airport:

Trip Planner

Search our weather history database for the weather conditions in past years. The results will help you decide how hot, cold, wet, or windy it might be!

Date:

Astronomy

Jul. 25, 2013 Rise Set
Actual Time 6:47 AM CDT 8:53 PM CDT
Civil Twilight 6:18 AM CDT 9:22 PM CDT
Nautical Twilight 5:43 AM CDT 9:56 PM CDT
Astronomical Twilight 5:05 AM CDT 10:34 PM CDT
Moon 10:45 PM CDT (7/25) 10:09 AM CDT (7/25)
Length of Visible Light 15h 03m
Length of Day
14h 06m
Waning Gibbous, 88% of the Moon is Illuminated
Jul 25
Waning Gibbous
Jul 29
Last Quarter
Aug 6
New
Aug 14
First Quarter
Aug 20
Full

Hourly Weather History & Observations

Time (CDT) Temp. Dew Point Humidity Pressure Visibility Wind Dir Wind Speed Gust Speed Precip Events Conditions
12:15 AM 75.4 °F 54.1 °F 48% 30.17 in 10.0 mi West 16.1 mph 19.6 mph N/A   Scattered Clouds
12:35 AM 74.1 °F 55.2 °F 52% 30.17 in 10.0 mi WNW 8.1 mph 17.3 mph N/A   Mostly Cloudy
12:55 AM 72.9 °F 55.8 °F 55% 30.17 in 10.0 mi West 13.8 mph - N/A   Overcast
1:15 AM 73.0 °F 54.7 °F 52% 30.18 in 10.0 mi West 12.7 mph 20.7 mph N/A   Overcast
1:35 AM 72.9 °F 54.5 °F 52% 30.18 in 10.0 mi WNW 6.9 mph - N/A   Overcast
1:55 AM 72.9 °F 54.9 °F 53% 30.18 in 10.0 mi West 9.2 mph - N/A   Overcast
2:15 AM 72.0 °F 56.3 °F 58% 30.19 in 10.0 mi West 10.4 mph - N/A   Mostly Cloudy
2:35 AM 71.2 °F 57.2 °F 61% 30.19 in 10.0 mi NW 11.5 mph - N/A Thunderstorm Unknown
2:55 AM 70.5 °F 56.5 °F 61% 30.19 in 10.0 mi WSW 11.5 mph 16.1 mph N/A Thunderstorm Mostly Cloudy
3:15 AM 68.2 °F 60.6 °F 77% 30.20 in 10.0 mi WSW 5.8 mph - N/A Rain , Thunderstorm Rain
3:35 AM 66.4 °F 60.4 °F 81% 30.20 in 7.0 mi SSE 8.1 mph - N/A Rain Light Rain
3:55 AM 66.7 °F 61.7 °F 84% 30.20 in 10.0 mi NE 9.2 mph - N/A Rain Light Rain
4:15 AM 65.7 °F 62.1 °F 88% 30.20 in 10.0 mi ENE 13.8 mph - N/A Rain Light Rain
4:35 AM 65.5 °F 61.9 °F 88% 30.19 in 10.0 mi NNW 6.9 mph - N/A   Overcast
4:55 AM 66.0 °F 61.5 °F 85% 30.19 in 10.0 mi ENE 3.5 mph - N/A   Scattered Clouds
5:15 AM 66.2 °F 61.5 °F 85% 30.18 in 10.0 mi NNE 3.5 mph - N/A   Scattered Clouds
5:35 AM 66.2 °F 61.7 °F 85% 30.16 in 10.0 mi ENE 6.9 mph - N/A Rain Light Rain
5:55 AM 65.7 °F 61.9 °F 88% 30.13 in 10.0 mi East 8.1 mph - N/A   Light Drizzle
6:15 AM 66.2 °F 61.7 °F 85% 30.12 in 10.0 mi SE 10.4 mph - N/A   Mostly Cloudy
6:35 AM 68.5 °F 58.1 °F 69% 30.13 in 10.0 mi SE 16.1 mph 21.9 mph N/A Rain Light Rain
6:55 AM 65.7 °F 60.3 °F 83% 30.12 in 7.0 mi SE 20.7 mph 25.3 mph N/A Rain Light Rain
7:15 AM 65.8 °F 60.4 °F 83% 30.11 in 10.0 mi ESE 18.4 mph - N/A   Mostly Cloudy
7:35 AM 66.2 °F 59.7 °F 80% 30.13 in 10.0 mi South 13.8 mph - N/A   Mostly Cloudy
7:55 AM 65.5 °F 60.3 °F 83% 30.13 in 10.0 mi SSE 13.8 mph 17.3 mph N/A   Scattered Clouds
8:15 AM 65.3 °F 60.3 °F 84% 30.14 in 10.0 mi SSE 12.7 mph - N/A Rain , Thunderstorm Light Thunderstorms and Rain
8:35 AM 65.3 °F 59.9 °F 83% 30.16 in 10.0 mi South 15.0 mph - N/A Rain , Thunderstorm Thunderstorms and Rain
8:55 AM 63.9 °F 60.6 °F 89% 30.21 in 1.5 mi SSW 24.2 mph 38.0 mph N/A Rain , Thunderstorm Heavy Thunderstorms and Rain
9:15 AM 63.1 °F 59.9 °F 89% 30.14 in 5.0 mi SE 16.1 mph - N/A Rain , Thunderstorm Light Thunderstorms and Rain
9:35 AM 64.4 °F 60.3 °F 86% 30.17 in 10.0 mi South 17.3 mph 21.9 mph N/A Thunderstorm Scattered Clouds
9:55 AM 65.7 °F 61.0 °F 85% 30.17 in 10.0 mi South 18.4 mph 21.9 mph N/A   Scattered Clouds
10:15 AM 66.4 °F 60.8 °F 82% 30.16 in 10.0 mi SSE 16.1 mph - N/A   Mostly Cloudy
10:35 AM 67.1 °F 60.3 °F 79% 30.16 in 10.0 mi SSE 17.3 mph 20.7 mph N/A Thunderstorm Mostly Cloudy
10:55 AM 70.0 °F 61.9 °F 75% 30.16 in 10.0 mi SSE 19.6 mph 24.2 mph N/A Thunderstorm Mostly Cloudy
11:15 AM 71.6 °F 61.0 °F 69% 30.16 in 10.0 mi SSE 19.6 mph 25.3 mph N/A Thunderstorm Scattered Clouds
11:35 AM 73.4 °F 61.5 °F 66% 30.16 in 10.0 mi SSE 25.3 mph 28.8 mph N/A   Clear
11:55 AM 73.8 °F 62.1 °F 67% 30.16 in 10.0 mi SSE 20.7 mph 25.3 mph N/A   Clear
12:15 PM 75.0 °F 63.1 °F 66% 30.17 in 10.0 mi SSE 19.6 mph 25.3 mph N/A   Clear
12:35 PM 74.1 °F 63.5 °F 69% 30.17 in 10.0 mi SSE 19.6 mph - N/A   Scattered Clouds
12:55 PM 73.4 °F 63.7 °F 71% 30.18 in 10.0 mi SSE 23.0 mph 27.6 mph N/A   Scattered Clouds
1:15 PM 71.6 °F 63.5 °F 76% 30.18 in 10.0 mi SSE 23.0 mph 26.5 mph N/A   Mostly Cloudy
1:35 PM 71.8 °F 62.4 °F 72% 30.16 in 10.0 mi SSE 20.7 mph 28.8 mph N/A   Mostly Cloudy
1:55 PM 73.0 °F 62.1 °F 68% 30.16 in 10.0 mi SSE 20.7 mph 25.3 mph N/A   Scattered Clouds
2:15 PM 72.1 °F 62.4 °F 71% 30.16 in 10.0 mi South 18.4 mph 26.5 mph N/A   Mostly Cloudy
2:35 PM 72.0 °F 62.8 °F 73% 30.15 in 10.0 mi South 21.9 mph 26.5 mph N/A Rain Light Rain
2:55 PM 73.6 °F 63.0 °F 69% 30.14 in 10.0 mi SSE 20.7 mph 26.5 mph N/A   Scattered Clouds
3:15 PM 75.9 °F 63.5 °F 65% 30.13 in 10.0 mi South 19.6 mph 25.3 mph N/A   Scattered Clouds
3:35 PM 75.4 °F 62.6 °F 64% 30.13 in 10.0 mi South 24.2 mph 29.9 mph N/A   Clear
3:55 PM 76.5 °F 62.1 °F 61% 30.12 in 10.0 mi South 25.3 mph 29.9 mph N/A   Clear
4:15 PM 76.1 °F 63.0 °F 64% 30.11 in 10.0 mi South 23.0 mph 28.8 mph N/A   Scattered Clouds
4:35 PM 76.8 °F 63.9 °F 64% 30.10 in 10.0 mi South 20.7 mph 25.3 mph N/A   Mostly Cloudy
4:55 PM 77.9 °F 65.1 °F 65% 30.09 in 10.0 mi South 19.6 mph - N/A   Mostly Cloudy
5:15 PM 77.9 °F 65.5 °F 65% 30.08 in 10.0 mi South 19.6 mph 26.5 mph N/A   Scattered Clouds
5:35 PM 76.8 °F 65.3 °F 67% 30.08 in 10.0 mi South 21.9 mph 25.3 mph N/A   Mostly Cloudy
5:55 PM 78.4 °F 65.5 °F 64% 30.07 in 10.0 mi South 19.6 mph 26.5 mph N/A   Scattered Clouds
6:15 PM 77.5 °F 65.3 °F 66% 30.07 in 10.0 mi South 19.6 mph - N/A   Scattered Clouds
6:35 PM 75.6 °F 65.5 °F 71% 30.07 in 10.0 mi South 19.6 mph - N/A   Overcast
6:55 PM 75.0 °F 65.3 °F 72% 30.07 in 10.0 mi South 17.3 mph - N/A   Mostly Cloudy
7:15 PM 74.3 °F 65.3 °F 73% 30.08 in 10.0 mi South 15.0 mph 23.0 mph N/A   Scattered Clouds
7:35 PM 73.8 °F 64.8 °F 73% 30.10 in 10.0 mi South 13.8 mph - N/A   Clear
7:55 PM 72.9 °F 65.3 °F 77% 30.09 in 10.0 mi South 11.5 mph - N/A   Clear
8:15 PM 72.1 °F 65.3 °F 79% 30.08 in 10.0 mi South 13.8 mph 19.6 mph N/A   Clear
8:35 PM 71.6 °F 65.3 °F 80% 30.10 in 10.0 mi South 13.8 mph - N/A   Scattered Clouds
8:55 PM 71.1 °F 65.3 °F 82% 30.10 in 10.0 mi South 11.5 mph - N/A   Scattered Clouds
9:15 PM 70.9 °F 65.7 °F 83% 30.08 in 10.0 mi South 15.0 mph - N/A   Scattered Clouds
9:35 PM 70.9 °F 65.7 °F 83% 30.08 in 10.0 mi South 15.0 mph - N/A   Clear
9:55 PM 70.7 °F 65.7 °F 84% 30.07 in 10.0 mi South 17.3 mph - N/A   Scattered Clouds
10:15 PM 70.7 °F 65.5 °F 83% 30.08 in 10.0 mi South 15.0 mph - N/A   Clear
10:35 PM 70.3 °F 65.7 °F 85% 30.08 in 10.0 mi South 13.8 mph - N/A   Clear
10:55 PM 70.2 °F 65.8 °F 86% 30.08 in 10.0 mi South 13.8 mph - N/A   Clear
11:15 PM 70.2 °F 66.2 °F 87% 30.09 in 10.0 mi South 13.8 mph - N/A   Clear
11:35 PM 70.3 °F 66.4 °F 87% 30.10 in 10.0 mi South 12.7 mph - N/A   Clear
11:55 PM 70.7 °F 67.1 °F 88% 30.09 in 10.0 mi South 13.8 mph - N/A   Scattered Clouds